N312CL KOSH-KFXE

Flight info

Callsign N312CL
Flight time N/A
Altitude 39000
Route CORIR BAE IIU KENLL CPTAN3
Aircraft LJ35/M-SGHRWXY/SB1

Departure

Time N/A
Airport Wittman Regional Airport (KOSH)

Arrival

Time 2026-04-20 22:46
Airport Fort Lauderdale Executive Airport (KFXE)
Time Latitude Longitude Altitude Speed Heading
2026-04-20 22:00 30.39639 -81.51343 39265 ft 509 kts 168°
2026-04-20 22:00 30.33120 -81.48225 39264 ft 509 kts 168°
2026-04-20 22:01 30.26568 -81.45096 39277 ft 509 kts 168°
2026-04-20 22:01 30.20016 -81.41972 39271 ft 509 kts 168°
2026-04-20 22:02 30.13461 -81.38852 39270 ft 509 kts 168°
2026-04-20 22:02 30.06912 -81.35738 39268 ft 509 kts 168°
2026-04-20 22:03 30.00352 -81.32624 39267 ft 509 kts 168°
2026-04-20 22:03 29.93838 -81.29535 39268 ft 510 kts 168°
2026-04-20 22:04 29.87273 -81.26428 39280 ft 510 kts 168°
2026-04-20 22:04 29.80696 -81.23320 39265 ft 510 kts 168°
2026-04-20 22:05 29.74122 -81.20215 39254 ft 511 kts 168°
2026-04-20 22:05 29.67533 -81.17110 39249 ft 511 kts 168°
2026-04-20 22:06 29.60945 -81.14008 39243 ft 511 kts 168°
2026-04-20 22:06 29.54335 -81.11063 39240 ft 507 kts 171°
2026-04-20 22:07 29.47739 -81.08346 39251 ft 507 kts 170°
2026-04-20 22:07 29.41089 -81.05579 39228 ft 508 kts 170°
2026-04-20 22:08 29.34437 -81.02837 39234 ft 508 kts 170°
2026-04-20 22:08 29.27783 -81.00085 39241 ft 508 kts 170°
2026-04-20 22:09 29.21134 -80.97347 39221 ft 507 kts 169°
2026-04-20 22:09 29.14498 -80.94611 39213 ft 507 kts 169°
2026-04-20 22:10 29.07849 -80.91879 39213 ft 507 kts 170°
2026-04-20 22:10 29.01218 -80.89155 39214 ft 507 kts 169°
2026-04-20 22:11 28.94574 -80.86431 39213 ft 506 kts 169°
2026-04-20 22:11 28.87970 -80.83728 39211 ft 503 kts 169°
2026-04-20 22:12 28.81420 -80.81054 39187 ft 503 kts 169°
2026-04-20 22:12 28.74828 -80.78364 39184 ft 502 kts 169°
2026-04-20 22:13 28.68253 -80.75685 39177 ft 502 kts 169°
2026-04-20 22:13 28.61679 -80.73012 39177 ft 501 kts 169°
2026-04-20 22:14 28.55114 -80.70342 39176 ft 500 kts 169°
2026-04-20 22:14 28.48554 -80.67682 39200 ft 500 kts 169°
2026-04-20 22:15 28.41999 -80.65024 39196 ft 500 kts 169°
2026-04-20 22:15 28.35440 -80.62370 39151 ft 500 kts 169°
2026-04-20 22:16 28.28909 -80.59728 39151 ft 495 kts 169°
2026-04-20 22:16 28.22470 -80.57132 39151 ft 493 kts 169°
2026-04-20 22:16 28.19257 -80.55832 39152 ft 481 kts 169°
2026-04-20 22:17 28.16180 -80.54578 39146 ft 461 kts 169°
2026-04-20 22:17 28.13218 -80.53387 39138 ft 443 kts 171°
2026-04-20 22:17 28.10363 -80.52255 39131 ft 429 kts 171°
2026-04-20 22:17 28.07554 -80.51127 38530 ft 430 kts 171°
2026-04-20 22:18 28.04716 -80.49989 37822 ft 434 kts 171°
2026-04-20 22:18 28.01867 -80.48841 37118 ft 435 kts 171°
2026-04-20 22:18 27.99013 -80.47691 36502 ft 436 kts 170°
2026-04-20 22:18 27.96154 -80.46544 35913 ft 435 kts 170°
2026-04-20 22:19 27.93305 -80.45402 35352 ft 434 kts 170°
2026-04-20 22:19 27.90460 -80.44261 34816 ft 433 kts 170°
2026-04-20 22:19 27.87626 -80.43122 34304 ft 431 kts 170°
2026-04-20 22:19 27.84805 -80.41989 33741 ft 429 kts 170°
2026-04-20 22:20 27.82001 -80.40866 33179 ft 426 kts 170°
2026-04-20 22:20 27.79215 -80.39749 32636 ft 424 kts 170°
2026-04-20 22:20 27.76446 -80.38640 32112 ft 421 kts 170°
2026-04-20 22:20 27.73689 -80.37537 31604 ft 418 kts 170°
2026-04-20 22:21 27.70958 -80.36444 31080 ft 415 kts 170°
2026-04-20 22:21 27.68281 -80.35374 30611 ft 412 kts 170°
2026-04-20 22:21 27.65596 -80.34231 30113 ft 415 kts 165°
2026-04-20 22:21 27.62987 -80.32843 29574 ft 414 kts 163°
2026-04-20 22:22 27.60395 -80.31451 29050 ft 411 kts 163°
2026-04-20 22:22 27.57816 -80.30094 28534 ft 408 kts 163°
2026-04-20 22:22 27.55248 -80.28749 28041 ft 405 kts 163°
2026-04-20 22:22 27.52702 -80.27405 27563 ft 403 kts 163°
2026-04-20 22:23 27.50172 -80.26066 27095 ft 401 kts 162°
2026-04-20 22:23 27.47651 -80.24737 26649 ft 399 kts 162°
2026-04-20 22:23 27.45148 -80.23420 26215 ft 396 kts 162°
2026-04-20 22:23 27.42656 -80.22109 25786 ft 394 kts 162°
2026-04-20 22:24 27.40176 -80.20802 25364 ft 392 kts 162°
2026-04-20 22:24 27.37711 -80.19506 24959 ft 390 kts 162°
2026-04-20 22:24 27.35255 -80.18215 24558 ft 388 kts 161°
2026-04-20 22:24 27.32812 -80.16932 24160 ft 386 kts 161°
2026-04-20 22:25 27.30383 -80.15655 23783 ft 385 kts 161°
2026-04-20 22:25 27.27960 -80.14384 23340 ft 383 kts 161°
2026-04-20 22:25 27.25553 -80.13124 22903 ft 381 kts 162°
2026-04-20 22:25 27.23124 -80.11961 22474 ft 378 kts 163°
2026-04-20 22:26 27.20714 -80.10787 22046 ft 376 kts 162°
2026-04-20 22:26 27.18322 -80.09612 21629 ft 374 kts 162°
2026-04-20 22:26 27.15935 -80.08456 21222 ft 372 kts 162°
2026-04-20 22:27 27.11098 -80.06917 20399 ft 358 kts 178°
2026-04-20 22:27 27.08635 -80.06529 20022 ft 356 kts 178°
2026-04-20 22:27 27.06185 -80.06121 19664 ft 355 kts 178°
2026-04-20 22:27 27.03750 -80.05711 19321 ft 353 kts 178°
2026-04-20 22:28 27.01323 -80.05311 18969 ft 351 kts 178°
2026-04-20 22:28 26.98907 -80.04916 18620 ft 350 kts 178°
2026-04-20 22:28 26.96504 -80.04519 18247 ft 348 kts 178°
2026-04-20 22:28 26.94109 -80.04124 17852 ft 347 kts 177°
2026-04-20 22:29 26.91721 -80.03883 17445 ft 340 kts 187°
2026-04-20 22:29 26.89411 -80.04273 17041 ft 332 kts 200°
2026-04-20 22:29 26.87292 -80.05226 16644 ft 325 kts 213°
2026-04-20 22:29 26.85440 -80.06640 16274 ft 321 kts 221°
2026-04-20 22:30 26.83440 -80.07801 15884 ft 329 kts 204°
2026-04-20 22:30 26.81255 -80.08579 15528 ft 329 kts 201°
2026-04-20 22:30 26.79079 -80.09337 15190 ft 327 kts 201°
2026-04-20 22:30 26.76853 -80.09756 14836 ft 333 kts 186°
2026-04-20 22:31 26.74524 -80.09651 14506 ft 335 kts 180°
2026-04-20 22:31 26.72206 -80.09482 14200 ft 333 kts 180°
2026-04-20 22:31 26.69894 -80.09335 13891 ft 332 kts 180°
2026-04-20 22:31 26.67590 -80.09191 13539 ft 331 kts 180°
2026-04-20 22:32 26.65289 -80.09036 13189 ft 331 kts 181°
2026-04-20 22:32 26.62990 -80.08881 12847 ft 330 kts 180°
2026-04-20 22:32 26.60708 -80.08584 12494 ft 333 kts 169°
2026-04-20 22:32 26.58488 -80.07805 12159 ft 334 kts 165°
2026-04-20 22:33 26.56284 -80.06998 11835 ft 333 kts 166°
2026-04-20 22:33 26.54075 -80.06220 11515 ft 332 kts 165°
2026-04-20 22:33 26.51870 -80.05435 11207 ft 331 kts 164°
2026-04-20 22:33 26.49681 -80.04644 10915 ft 331 kts 165°
2026-04-20 22:34 26.47493 -80.03857 10630 ft 330 kts 165°
2026-04-20 22:34 26.45301 -80.03076 10344 ft 330 kts 164°
2026-04-20 22:34 26.43083 -80.02460 10022 ft 328 kts 175°
2026-04-20 22:34 26.40819 -80.02437 9696 ft 325 kts 187°
2026-04-20 22:35 26.38578 -80.02723 9398 ft 323 kts 189°
2026-04-20 22:35 26.36345 -80.02997 9127 ft 322 kts 187°
2026-04-20 22:35 26.34145 -80.03245 8855 ft 321 kts 187°
2026-04-20 22:35 26.31924 -80.03502 8565 ft 321 kts 188°
2026-04-20 22:36 26.29825 -80.04281 8229 ft 319 kts 211°
2026-04-20 22:36 26.28188 -80.05902 7889 ft 316 kts 234°
2026-04-20 22:36 26.27255 -80.08078 7588 ft 310 kts 260°
2026-04-20 22:36 26.26990 -80.10443 7338 ft 304 kts 270°
2026-04-20 22:37 26.26906 -80.12772 7086 ft 297 kts 275°
2026-04-20 22:37 26.26851 -80.15060 6836 ft 295 kts 269°
2026-04-20 22:37 26.26740 -80.17324 6629 ft 291 kts 269°
2026-04-20 22:37 26.26669 -80.19572 6270 ft 290 kts 274°
2026-04-20 22:38 26.26629 -80.21816 5987 ft 290 kts 270°
2026-04-20 22:38 26.26509 -80.24089 5475 ft 298 kts 269°
2026-04-20 22:38 26.26397 -80.26417 4956 ft 304 kts 272°
2026-04-20 22:38 26.26383 -80.28796 4463 ft 309 kts 275°
2026-04-20 22:39 26.26315 -80.31209 3956 ft 314 kts 269°
2026-04-20 22:39 26.26180 -80.33647 3420 ft 315 kts 270°
2026-04-20 22:39 26.26097 -80.36007 2878 ft 299 kts 271°
2026-04-20 22:39 26.26019 -80.38163 2314 ft 261 kts 271°
2026-04-20 22:40 26.25952 -80.40106 1870 ft 245 kts 270°
2026-04-20 22:40 26.25473 -80.41902 1415 ft 251 kts 242°
2026-04-20 22:40 26.24192 -80.43187 1389 ft 246 kts 208°
2026-04-20 22:40 26.23153 -80.43618 1398 ft 237 kts 192°
2026-04-20 22:41 26.21184 -80.44501 1396 ft 225 kts 191°
2026-04-20 22:41 26.19685 -80.44386 1397 ft 212 kts 154°
2026-04-20 22:41 26.18594 -80.43425 1399 ft 196 kts 117°
2026-04-20 22:41 26.18041 -80.42065 1397 ft 192 kts 105°
2026-04-20 22:42 26.17725 -80.41127 1399 ft 189 kts 104°
2026-04-20 22:42 26.17564 -80.39729 1396 ft 178 kts 81°
2026-04-20 22:42 26.17732 -80.38392 1402 ft 172 kts 76°
2026-04-20 22:42 26.17875 -80.37100 1402 ft 169 kts 77°
2026-04-20 22:43 26.18001 -80.35818 1405 ft 165 kts 76°
2026-04-20 22:43 26.18129 -80.34564 1406 ft 161 kts 79°
2026-04-20 22:43 26.18252 -80.33336 1406 ft 159 kts 78°
2026-04-20 22:43 26.18402 -80.32035 1416 ft 181 kts 76°
2026-04-20 22:44 26.18553 -80.30562 1427 ft 199 kts 73°
2026-04-20 22:44 26.18728 -80.28971 1432 ft 215 kts 80°
2026-04-20 22:44 26.18864 -80.27258 1430 ft 229 kts 81°
2026-04-20 22:44 26.19029 -80.25462 1326 ft 236 kts 79°
2026-04-20 22:45 26.19213 -80.23725 1034 ft 213 kts 80°
2026-04-20 22:45 26.19372 -80.22175 635 ft 189 kts 81°
2026-04-20 22:45 26.19466 -80.20933 361 ft 135 kts 79°
2026-04-20 22:45 26.19563 -80.19967 219 ft 122 kts 76°
2026-04-20 22:46 26.19648 -80.18986 120 ft 140 kts 70°
2026-04-20 22:46 26.19774 -80.17845 27 ft 149 kts 76°
2026-04-20 22:46 26.19873 -80.16921 23 ft 85 kts 83°
2026-04-20 22:46 26.19916 -80.16490 18 ft 41 kts 83°
2026-04-20 22:47 26.19947 -80.16327 15 ft 0 kts 47°
2026-04-20 22:47 26.19963 -80.16326 15 ft 8 kts 350°
2026-04-20 22:47 26.20010 -80.16379 17 ft 15 kts 268°
2026-04-20 22:47 26.19993 -80.16534 19 ft 24 kts 265°
2026-04-20 22:48 26.19974 -80.16748 20 ft 31 kts 263°
2026-04-20 22:48 26.19949 -80.17007 25 ft 36 kts 263°
2026-04-20 22:48 26.19929 -80.17238 23 ft 6 kts 291°